Location: Newark
(9.4667°S, 159.8167°E)
Time: 11:18:59
(UTC+00:00)

Vanguard 1 - Pass Details

Date: 18 November 2019
Orbit: 652 x 3832 km, 34.3° (Epoch: 09 December)

Event Time Altitude Azimuth Distance (km) Brightness Sun altitude
Rises 08:06:18 0° 323° (NW) 3,470 13.1 -10.9°
Reaches altitude 10° 08:08:27 10° 329° (NNW) 2,746 12.5 -11.4°
Maximum altitude 08:14:51 49° 44° (NE) 1,748 10.9 -12.8°
Drops below altitude 10° 08:26:20 10° 114° (ESE) 4,837 13.2 -15.5°
Sets 08:31:27 0° 118° (ESE) 6,383 13.9 -16.6°
